Fowler
DateTemperatureDew Point
08/31 - 01:00 PM87.5°57.2°
08/31 - 12:45 PM87.5°56.4°
08/31 - 12:30 PM88.6°57.8°
08/31 - 12:15 PM87.5°56.7°
08/31 - 12:00 PM85.4°56.0°
08/31 - 11:45 AM84.7°56.2°
08/31 - 11:30 AM83.7°56.3°
08/31 - 11:15 AM82.7°57.3°
08/31 - 11:00 AM80.4°57.2°
08/31 - 10:45 AM78.5°56.6°
08/31 - 10:30 AM76.9°56.9°
08/31 - 10:15 AM75.3°56.9°
08/31 - 10:00 AM74.1°57.0°
08/31 - 09:45 AM72.5°56.5°
08/31 - 09:30 AM71.5°56.3°
08/31 - 09:15 AM70.0°56.1°
08/31 - 09:00 AM68.3°55.9°
08/31 - 08:45 AM66.9°55.1°
08/31 - 08:30 AM65.0°55.4°
08/31 - 08:15 AM63.1°55.5°
08/31 - 08:00 AM61.1°54.9°
08/31 - 07:45 AM59.3°55.9°
08/31 - 07:30 AM57.5°54.9°
08/31 - 07:15 AM56.2°53.6°
08/31 - 07:00 AM55.1°52.2°
08/31 - 06:45 AM54.5°51.3°
08/31 - 06:30 AM54.2°50.8°
08/31 - 06:15 AM54.2°50.6°
08/31 - 06:00 AM54.5°50.4°
08/31 - 05:45 AM54.9°50.4°
08/31 - 05:30 AM55.3°50.7°
08/31 - 05:15 AM55.5°50.7°
08/31 - 05:00 AM55.8°51.0°
08/31 - 04:45 AM56.1°51.3°
08/31 - 04:30 AM56.4°51.2°
08/31 - 04:15 AM56.6°51.1°
08/31 - 04:00 AM57.0°51.2°
08/31 - 03:45 AM57.3°51.3°
08/31 - 03:30 AM57.5°51.4°
08/31 - 03:15 AM58.0°51.2°
08/31 - 03:00 AM58.5°51.1°
08/31 - 02:45 AM59.2°51.0°
08/31 - 02:30 AM60.0°51.3°
08/31 - 02:15 AM60.8°51.4°
08/31 - 02:00 AM61.3°51.1°
08/31 - 01:45 AM61.5°51.1°
08/31 - 01:30 AM61.7°50.8°
08/31 - 01:15 AM62.0°50.7°
08/31 - 01:00 AM62.7°51.1°
08/31 - 12:45 AM63.3°50.9°
08/31 - 12:30 AM63.7°50.2°
08/31 - 12:15 AM64.2°50.6°
08/31 - 12:00 AM64.7°50.9°
08/30 - 11:45 PM65.3°51.1°
08/30 - 11:30 PM65.9°50.8°
08/30 - 11:15 PM66.3°51.0°
08/30 - 11:00 PM67.0°51.7°
08/30 - 10:45 PM68.0°51.9°
08/30 - 10:30 PM69.0°51.7°
08/30 - 10:15 PM69.2°50.2°
08/30 - 10:00 PM68.4°51.1°
08/30 - 09:45 PM68.7°54.4°
08/30 - 09:30 PM69.7°54.4°
08/30 - 09:15 PM71.1°54.6°
08/30 - 09:00 PM72.7°54.4°
08/30 - 08:45 PM74.2°53.9°
08/30 - 08:30 PM75.0°52.0°
08/30 - 08:15 PM75.1°52.5°
08/30 - 08:00 PM75.1°52.0°
08/30 - 07:45 PM75.3°55.0°
08/30 - 07:30 PM76.1°56.3°
08/30 - 07:15 PM76.8°55.8°
08/30 - 07:00 PM78.1°59.2°
08/30 - 06:45 PM79.6°61.4°
08/30 - 06:30 PM81.3°64.2°
08/30 - 06:15 PM83.0°63.6°
08/30 - 06:00 PM84.4°62.4°
08/30 - 05:45 PM85.6°62.5°
08/30 - 05:30 PM86.8°62.1°
08/30 - 05:15 PM87.8°59.8°
08/30 - 05:00 PM88.8°59.1°
08/30 - 04:45 PM89.9°58.0°
08/30 - 04:30 PM90.6°56.1°
08/30 - 04:15 PM90.8°55.8°
08/30 - 04:00 PM91.0°57.2°
08/30 - 03:45 PM91.3°55.1°
08/30 - 03:30 PM91.4°54.0°
08/30 - 03:15 PM91.7°53.3°
08/30 - 03:00 PM91.9°54.5°
08/30 - 02:45 PM91.9°54.8°
08/30 - 02:30 PM91.8°54.1°
08/30 - 02:15 PM91.6°56.1°
08/30 - 02:00 PM91.0°54.8°
08/30 - 01:45 PM90.4°55.1°
08/30 - 01:30 PM89.9°55.2°
08/30 - 01:15 PM89.5°57.0°
08/30 - 01:00 PM89.2°57.1°
08/30 - 12:45 PM89.4°58.1°
08/30 - 12:30 PM89.8°59.0°
08/30 - 12:15 PM88.6°58.8°
08/30 - 12:00 PM87.7°58.5°
08/30 - 11:45 AM86.2°58.7°
08/30 - 11:30 AM83.7°58.3°
08/30 - 11:15 AM82.2°57.8°
08/30 - 11:00 AM80.3°57.6°
08/30 - 10:45 AM79.0°56.2°
08/30 - 10:30 AM77.7°56.9°
08/30 - 10:15 AM76.2°57.2°
08/30 - 10:00 AM75.3°56.7°
08/30 - 09:45 AM73.7°55.3°
08/30 - 09:30 AM72.3°54.9°
08/30 - 09:15 AM71.0°54.3°
08/30 - 09:00 AM69.7°55.0°
08/30 - 08:45 AM68.5°54.5°
08/30 - 08:30 AM67.4°52.4°
08/30 - 08:15 AM65.9°53.0°
08/30 - 08:00 AM64.6°53.2°
08/30 - 07:45 AM62.8°51.8°
08/30 - 07:30 AM60.3°52.0°
08/30 - 07:15 AM58.6°52.1°
08/30 - 07:00 AM57.6°51.3°
08/30 - 06:45 AM57.4°50.6°
08/30 - 06:30 AM57.5°49.9°
08/30 - 06:15 AM57.5°49.2°
08/30 - 06:00 AM57.6°48.6°
08/30 - 05:45 AM58.2°49.1°
08/30 - 05:30 AM58.6°49.3°
08/30 - 05:15 AM59.0°48.6°
08/30 - 05:00 AM59.4°48.1°
08/30 - 04:45 AM59.7°47.8°
08/30 - 04:30 AM60.1°49.0°
08/30 - 04:15 AM60.7°48.9°
08/30 - 04:00 AM60.8°48.1°
08/30 - 03:45 AM60.5°48.7°
08/30 - 03:30 AM61.0°49.1°
08/30 - 03:15 AM61.6°48.4°
08/30 - 03:00 AM62.5°48.6°
08/30 - 02:45 AM63.4°49.3°
08/30 - 02:30 AM64.2°49.0°
08/30 - 02:15 AM65.6°49.9°
08/30 - 02:00 AM67.3°50.1°
08/30 - 01:45 AM68.9°48.4°
08/30 - 01:30 AM69.7°46.6°
08/30 - 01:15 AM70.3°46.5°
08/30 - 01:00 AM70.8°47.7°
08/30 - 12:45 AM71.0°48.2°
08/30 - 12:30 AM70.9°49.3°
08/30 - 12:15 AM70.7°50.1°
08/30 - 12:00 AM69.8°51.0°
08/29 - 11:45 PM69.6°52.4°
08/29 - 11:30 PM70.2°52.9°
08/29 - 11:15 PM70.7°53.3°
08/29 - 11:00 PM71.1°52.9°
08/29 - 10:45 PM71.8°52.4°
08/29 - 10:30 PM72.9°53.2°
08/29 - 10:15 PM74.0°53.6°
08/29 - 10:00 PM75.1°53.3°
08/29 - 09:45 PM76.2°52.4°
08/29 - 09:30 PM77.3°52.9°
08/29 - 09:15 PM77.3°52.5°
08/29 - 09:00 PM75.4°53.4°
08/29 - 08:45 PM74.6°56.5°
08/29 - 08:30 PM75.3°57.3°
08/29 - 08:15 PM76.1°56.9°
08/29 - 08:00 PM77.1°58.6°
08/29 - 07:45 PM78.2°58.3°
08/29 - 07:30 PM79.3°58.7°
08/29 - 07:15 PM80.6°58.9°
08/29 - 07:00 PM81.9°59.6°
08/29 - 06:45 PM83.3°61.0°
08/29 - 06:30 PM84.6°62.1°
08/29 - 06:15 PM85.8°63.1°
08/29 - 06:00 PM86.7°62.9°
08/29 - 05:45 PM87.5°62.6°
08/29 - 05:30 PM88.3°65.0°
08/29 - 05:15 PM89.1°64.3°
08/29 - 05:00 PM89.4°63.1°
08/29 - 04:45 PM89.6°64.1°
08/29 - 04:30 PM89.7°63.3°
08/29 - 04:15 PM90.0°63.5°
08/29 - 04:00 PM89.8°62.2°
08/29 - 03:45 PM89.9°62.6°
08/29 - 03:30 PM90.2°64.0°
08/29 - 03:15 PM90.5°65.2°
08/29 - 03:00 PM90.5°64.5°
08/29 - 02:45 PM90.7°64.4°
08/29 - 02:30 PM90.6°63.6°
08/29 - 02:15 PM90.8°63.4°
08/29 - 02:00 PM90.6°63.2°
08/29 - 01:45 PM90.3°62.4°